Location: Newark
(48.1500°N, 2.9667°W)
Time: 03:55:23
(UTC+00:00)

Altair - Pass Details

Date: 01 February 2020
Orbit: 1502 x 1682 km, 47.2° (Epoch: 18 February)

Event Time Altitude Azimuth Distance (km) Brightness Sun altitude
Rises 15:11:51 0° 286° (WNW) 4,937 10.5 14.9°
Reaches altitude 10° 15:17:27 10° 262° (W) 3,930 10.6 14.3°
Maximum altitude 15:21:27 13° 238° (WSW) 3,662 11.5 13.8°
Drops below altitude 10° 15:25:26 10° 214° (SW) 3,884 12.0 13.4°
Sets 15:30:56 0° 189° (S) 4,829 11.1 12.7°
